CHUANG XIN 19 (CX-19)

Satellite information

Favourite Embed

Satellite Type and Status

PAYLOADIN ORBIT

Key statistics

Satellite CHUANG XIN 19 (CX-19) at a glance.

Uptime

740

Days in orbit

Revolutions

≈ 13.4

Per day

Orbit

LEO

Low Earth Orbit

Inclination

86.5

Latest

Satellite identification and parameters

Extended collection of information and parameters for CHUANG XIN 19 (CX-19).

Object identification

Identified? True

Debris? False

Object name: CHUANG XIN 19 (CX-19)

International designator: 2023-190A

Object number (NORAD): 58505

Object ID (CCSDS): 58505

Country: PEOPLES REPUBLIC OF CHINA (PRC)

Current information (Y/N): Y

RCS size: LARGE

Orbital parameters

Period: 107.5 minutes

Inclination: 86.5036 deg

SMA: 7489.155 km

Apoapsis: 1112.109 km

Periapsis: 1109.93 km

RAAN: 36.7703 deg

Eccentricy: 0.00014543

Argument of periapsis: 107.4436 deg

Mean anomaly: 252.6866 deg

Mean motion: 13.39533478 rev/day

Mean motion (dot): 0.00000074 rev/day2

B* drag term: 0.00010860351 1/REarth

Two-line elements (TLE)

Creation date: Dec. 14, 2025, 3:07 a.m.

Reference frame: TEME

Reference center: EARTH

Epoch: Dec. 13, 2025, 3:11 p.m. UTC

TLE line 0: 0 CHUANG XIN 19 (CX-19)

TLE line 1: 1 58505U 23190A 25347.63321028 .00000074 00000-0 10860-3 0 9993

TLE line 2: 2 58505 86.5036 36.7703 0001454 107.4436 252.6866 13.39533478 99850

Live tracking on map

Real-time ground track for satellite CHUANG XIN 19 (CX-19).

In-orbit conjunctions

There are no conjunctions computed for CHUANG XIN 19 (CX-19), at the moment. Check back to stay up to date, as we update our databases every day.

Go to all conjunctions

Associated space launch

Officially described as "Satellite-Internet Technology Demonstration Satellite(s)" built by Chinese Academy of Sciences. Probable 1 (?) test satellite for the Chinese state-owned LEO communication satellite constellation SatNet.

CHUANG XIN 19 (CX-19) was lifted into orbit during the mission ‘Smart Dragon 3 | SatNet test satellite’, on board a Smart Dragon 3 space rocket.

The launch took place on Dec. 5, 2023, 7:24 p.m. from Bo Run Jiu Zhou mobile launch platform.

For more information about the launch, click the button.

Launch to space Smart Dragon 3 | SatNet test satellite
Smart Dragon 3 | SatNet test satellite

Agency: N/A

Status: Launch Successful

Launch date: Dec. 5, 2023, 7:24 p.m. UTC

Rocket: Smart Dragon 3

Launch pad: Bo Run Jiu Zhou mobile launch platform

Location: Sea Launch

...

Latest news about this satellite

News about space launch
China launches internet technology test satellite from sea barge

China launched a new internet technology experiment satellite from a sea platform Tuesday, apparently continuing tests for a low Earth orbit megaconstellation.

News about space launch
Launch Roundup: Soyuz resupplies the ISS; SpaceX launches more Starlink satellites

This week, SpaceX continued its incredible launch cadence with two more launches of Falcon 9, a Soyuz 2.1a resupplied the International Space Station (ISS), and three missions launched consecutively out of China.


Newsletter sign-up

Weekly statistics, charts and insights to help you stay on top of the space industry.